Location: Izdebno
(52.6670°N, 16.2170°E)
Time: 10:00:04
(UTC+01:00)

Transit 2A - Pass Details

Date: 03 February 2023
Orbit: 591 x 964 km, 66.7° (Epoch: 21 March)

Event Time Altitude Azimuth Distance (km) Brightness Sun altitude
Rises 02:38:49 0° 316° (NW) 3,486 - -43.5°
Reaches altitude 10° 02:41:31 10° 306° (NW) 2,591 - -43.2°
Maximum altitude 02:46:44 31° 247° (WSW) 1,597 - -42.6°
Drops below altitude 10° 02:52:09 10° 189° (S) 2,690 - -41.9°
Sets 02:55:00 0° 179° (S) 3,638 - -41.5°
